sat.trackr.live / text

‹ back to catalog

TEVEL2-7

NORAD 63238 · 2025-052AE

PAYLOAD ACTIVE UNKNOWN

§ Identity

Operator
Country
ISRA
Launch date
2025-03-15
Launch site
AFWTR
Launch vehicle
Mass (kg)
RCS (m²)

Purposes: comms

External: N2YO · Heavens-Above · Gunter

§ Orbital elements

Epoch: 2026-05-25T03:06:04.304736Z

Period
94.07 min
Inclination
97.3970°
Eccentricity
0.0005072
Mean motion
15.30807276 rev/d
Perigee alt
469.9 km
Apogee alt
476.9 km
Semi-major
6,851.5 km
B*
4.7881e-4
RAAN
40.4357°
Arg perigee
206.1899°
Mean anomaly
153.9086°
Rev number
6,649

§ Raw data

TEVEL2-71 63238U 25052AE  26145.12921649  .00014195  00000+0  47881-3 0  99982 63238  97.3970  40.4357 0005072 206.1899 153.9086 15.30807276 66497

JSON: /api/v1/satellites/63238 · /tle

For live sub-satellite position, see the globe view (requires WebGL).

§ Visibility from observer

Set your observer location to see the next 7 days of passes ≥ 10°. The values pass through the URL so the page stays shareable.

No JS? Fill the form by hand. The geolocation button needs JavaScript.

§ Radio — SatNOGS DB

ModeDescriptionDownlinkUplink
BPSK Mode U - BPSK9k6 G3RUH - Beacon 436.400 MHz
FM Mode V/U - FM Transponder 436.400 MHz 145.970 MHz

2 transmitters · refreshed weekly from db.satnogs.org